Regional Weather Roundup
Issued by NWS

Home | Current Version | Previous Version | Text Only | Print | Product List | Glossary Off
Versions: 1 2 3 4 5 6 7 8 9 10 11 12 13 14 15 16 17 18 19 20 21 22 23 24 25 26 27 28 29 30 31 32 33 34 35 36 37 38 39 40 41 42 43 44 45 46 47 48 49 50

000
ASUS43 KLMK 271910
RWRKY
KENTUCKY REGIONAL WEATHER ROUNDUP
NATIONAL WEATHER SERVICE LOUISVILLE KY
300 PM EDT SUN JUL 27 2014

NOTE "FAIR" INDICATES FEW OR NO CLOUDS BELOW 12,000 FEET
WITH NO SIGNIFICANT WEATHER AND/OR OBSTRUCTIONS TO VISIBILITY.

KYZ001>023-026-027-061>063-070>075-272000-
WESTERN AND SOUTH CENTRAL KENTUCKY

CITY           SKY/WX    TMP DP  RH WIND       PRES   REMARKS
PADUCAH        CLOUDY    92  77  61 SW15      29.87F HX 105
HENDERSON      PTSUNNY   88  77  70 W13       29.82S HX 100
OWENSBORO      PTSUNNY   91  77  63 W15       29.83F HX 104
HOPKINSVILLE   MOSUNNY   94  74  52 W18G28    29.87F HX 105
BOWLING GREEN  MOSUNNY   95  73  48 W17G26    29.83F HX 104
GLASGOW        CLOUDY    91  73  56 W12G17    29.83F HX  99
$$

KYZ024-025-028>034-038-045-046-053-272000-
NORTH CENTRAL KENTUCKY

CITY           SKY/WX    TMP DP  RH WIND       PRES   REMARKS
LOUISVILLE/SDF PTSUNNY   85  77  77 SW14      29.78F HX  95
LOUISVILLE/LOU PTSUNNY   83  77  82 SW8       29.80F HX  92
FORT KNOX      PTSUNNY   84  78  82 SW12      29.81S HX  94
$$

KYZ035>037-039>044-047>052-055>060-089>105-272000-
NORTHEAST KENTUCKY

CITY           SKY/WX    TMP DP  RH WIND       PRES   REMARKS
LEXINGTON      LGT RAIN  74  71  91 S5        29.84F
COVINGTON      CLOUDY    74  69  85 SW9G21    29.78F
FRANKFORT      LGT RAIN  72  70  93 S5        29.81F FOG
$$

KYZ054-064>069-076>088-106>120-272000-
SOUTHEAST KENTUCKY

CITY           SKY/WX    TMP DP  RH WIND       PRES   REMARKS
JACKSON        CLOUDY    71  69  93 VRB5      29.88F
LONDON         CLOUDY    85  74  69 SW10      29.88F HX  92
SOMERSET       PTSUNNY   81  72  74 S7        29.87F
MIDDLESBORO    PTSUNNY   84  73  68 S6        29.91S HX  91
MONTICELLO     TSTM      75  72  88 VRB3      29.90F VSB<1/4
$$



USA.gov is the U.S. government's official web portal to all federal, state and local government web resources and services.